Probability
0 0 0 0 0 0 0 0 0 0 0 0 0 0 0 3 6 6 6 0 0 0 0 0 0 0 0 0 0 0 0 0 0 0 0 0 0 0 0 0 0 0 0 0
0 0 0 0 0 0 0 0 0 0 0 0 0 0 0 0 3 0 3 0 0 0 0 0 0 0 0 0 0 0 0 0 0 0 0 0 0 0 0 0 0 0 0 0
0 0 0 0 0 0 0 0 0 0 0 0 0 0 0 0 0 0 0 0 0 0 0 0 0 0 0 0 0 0 0 0 0 0 0 0 0 0 0 0 0 0 0 0
0 0 0 0 0 0 0 0 0 0 0 0 0 0 0 0 0 0 0 0 0 0 0 0 0 0 0 0 0 0 0 0 0 0 0 0 0 0 0 0 0 0 0 0
0 0 0 0 0 0 0 0 0 0 0 0 0 0 0 0 0 0 0 0 0 0 0 0 0 0 0 0 0 0 0 0 0 0 0 0 0 0 0 0 0 0 0 0
0 0 0 0 0 0 0 0 0 0 0 0 0 0 0 0 0 0 0 0 0 0 0 3 0 0 0 0 0 0 0 0 0 0 0 0 0 0 0 0 0 0 0 0
0 0 0 0 0 0 0 0 0 0 0 0 0 0 0 0 0 0 0 0 0 0 0 3 0 3 0 0 0 0 0 3 0 0 0 0 0 0 0 0 0 0 0 0
0 0 0 0 0 0 0 0 0 0 0 0 0 0 0 0 0 0 0 0 0 0 0 3 0 3 0 0 0 0 0 0 3 0 0 0 0 0 0 0 0 0 0 0
0 0 0 0 0 0 0 0 0 0 0 0 0 0 0 0 0 0 0 0 0 0 3 3 3 3 0 0 0 0 0 3 6 3 0 0 0 0 0 0 0 0 0 0
0 0 0 0 0 0 0 0 0 0 0 0 0 0 0 0 0 3 3 0 0 0 3 3 6 3 0 0 0 0 0 0 6 6 0 0 0 0 0 0 0 0 0 0
0 0 0 0 0 0 0 0 0 0 0 0 0 0 0 0 0 0 0 0 0 0 0 6 0 3 0 0 0 3 0 0 6 3 0 0 0 0 0 0 0 0 0 0
0 0 0 0 0 0 0 0 0 0 0 0 0 0 0 0 0 0 0 0 0 0 6 6 0 0 0 0 0 3 0 3 6 0 0 0 0 0 0 0 0 0 0 0
0 0 0 0 0 0 0 0 0 0 0 0 0 0 0 0 0 0 0 0 3 6 3 6 0 0 0 0 0 3 6 6 6 0 0 0 0 0 0 0 0 0 0 0
0 0 0 0 0 0 0 0 0 0 0 0 0 0 0 0 3 3 3 0 3 0 3 3 3 0 0 0 0 3 6 6 6 3 0 0 0 0 0 0 0 0 0 0
0 0 0 0 0 0 0 0 0 0 0 0 0 0 0 0 0 3 3 3 3 3 0 3 3 3 6 0 0 0 6 6 3 0 0 0 0 0 0 0 0 0 0 0
0 0 0 0 0 0 0 0 0 0 0 0 0 0 0 0 0 0 0 6 10 6 3 3 3 3 3 3 0 3 3 6 3 0 0 0 0 0 0 0 0 0 0 0
0 0 0 0 0 0 0 0 0 0 0 0 0 0 0 0 0 0 0 3 6 6 3 3 3 6 3 3 3 3 0 0 3 3 0 0 0 0 0 0 0 0 0 0
0 0 0 0 0 0 0 0 0 0 0 0 0 0 0 0 0 0 0 0 6 3 3 3 3 3 6 3 3 3 0 0 3 0 0 0 0 0 0 0 0 0 0 0
0 0 0 0 0 0 0 0 0 0 0 0 0 0 0 0 0 0 0 0 3 6 3 3 6 6 3 6 6 3 3 0 0 0 0 0 0 0 0 0 0 0 0 0
0 0 0 0 0 0 0 0 0 0 0 0 0 0 0 0 0 0 0 0 3 6 3 3 6 6 3 3 6 3 3 3 0 0 0 0 0 0 0 0 0 0 0 0
0 0 0 0 0 0 0 0 0 0 0 0 0 0 0 0 0 0 0 0 3 6 3 3 6 6 3 6 6 6 10 10 10 3 0 0 3 0 0 0 0 0 0 0
0 0 0 0 0 0 0 0 0 0 0 0 0 0 0 0 0 0 0 0 6 10 3 3 6 6 10 6 6 10 10 10 10 6 3 3 0 3 6 6 0 0 3 0
0 0 0 0 0 0 0 0 0 0 0 0 0 0 0 0 0 0 0 3 3 10 10 10 6 6 6 6 6 10 10 10 6 6 3 3 6 6 6 3 0 0 3 0
0 0 0 0 0 0 0 0 0 0 0 0 0 0 0 0 0 0 0 0 6 6 6 10 10 10 13 10 13 13 13 10 6 3 3 3 0 3 6 6 3 3 0 0
0 0 0 0 0 0 0 0 0 0 0 0 0 0 0 0 0 0 0 3 6 6 6 10 6 6 6 3 6 10 10 6 6 6 3 3 3 3 3 0 0 3 3 0
0 0 0 0 0 0 0 0 0 0 0 0 0 0 0 0 0 0 0 3 3 6 6 6 6 6 6 3 3 3 6 6 6 6 6 3 3 3 0 0 0 0 0 0
Height
5839 5840 5840 5841 5841 5841 5841 5841 5841 5842 5842 5843 5844 5845 5846 5847 5848 5849 5851 5853 5855 5857 5859 5861 5863 5865 5867 5869 5870 5872 5874 5875 5877 5878 5878 5879 5879 5878 5878 5878 5877 5876 5875 5874
5837 5837 5837 5837 5838 5838 5838 5838 5839 5839 5839 5840 5841 5842 5843 5843 5845 5846 5848 5850 5852 5854 5857 5859 5861 5863 5865 5867 5869 5871 5873 5874 5876 5877 5878 5878 5879 5879 5878 5878 5877 5877 5876 5875
5834 5835 5835 5835 5835 5835 5835 5836 5836 5836 5836 5837 5838 5839 5840 5841 5842 5844 5845 5847 5849 5851 5854 5856 5858 5861 5863 5865 5867 5870 5872 5873 5875 5876 5877 5878 5878 5879 5879 5879 5878 5878 5877 5876
5831 5832 5832 5832 5832 5832 5832 5833 5833 5833 5834 5835 5836 5837 5837 5838 5839 5841 5843 5844 5846 5849 5851 5854 5856 5858 5861 5864 5866 5868 5870 5872 5874 5875 5877 5878 5878 5879 5879 5879 5879 5878 5877 5876
5828 5829 5829 5829 5829 5829 5830 5830 5831 5831 5831 5832 5833 5834 5835 5835 5837 5838 5840 5842 5843 5846 5848 5851 5854 5856 5859 5862 5865 5867 5869 5871 5873 5875 5876 5877 5878 5879 5879 5879 5880 5879 5878 5877
5825 5826 5826 5827 5827 5827 5827 5828 5828 5828 5829 5830 5831 5831 5832 5833 5834 5835 5836 5838 5840 5843 5846 5848 5852 5854 5858 5860 5863 5866 5868 5870 5872 5874 5875 5877 5878 5879 5879 5880 5880 5880 5879 5879
5822 5823 5823 5824 5824 5825 5825 5826 5826 5826 5827 5828 5829 5829 5830 5830 5831 5832 5834 5836 5838 5840 5843 5847 5850 5853 5856 5859 5861 5864 5866 5869 5871 5872 5874 5876 5877 5878 5879 5880 5880 5880 5880 5880
5820 5821 5821 5822 5822 5822 5823 5824 5825 5825 5826 5826 5826 5826 5828 5827 5828 5829 5831 5833 5836 5838 5841 5844 5847 5851 5854 5857 5860 5862 5865 5867 5869 5871 5873 5875 5877 5878 5879 5880 5880 5880 5881 5880
5817 5818 5818 5819 5820 5820 5821 5821 5822 5823 5823 5824 5824 5824 5825 5825 5826 5827 5829 5831 5833 5836 5839 5842 5845 5849 5852 5855 5858 5860 5863 5866 5868 5870 5872 5874 5876 5877 5878 5879 5880 5880 5881 5881
5814 5815 5816 5816 5817 5818 5819 5819 5820 5821 5821 5822 5823 5823 5823 5823 5824 5825 5827 5828 5831 5834 5836 5839 5843 5846 5849 5853 5856 5858 5861 5864 5866 5868 5870 5873 5875 5876 5877 5879 5880 5880 5881 5881
5810 5812 5813 5814 5815 5816 5817 5818 5818 5819 5819 5820 5820 5822 5821 5821 5822 5823 5825 5826 5829 5831 5834 5837 5840 5844 5847 5850 5853 5856 5859 5862 5865 5867 5869 5871 5873 5875 5876 5878 5879 5880 5880 5881
5807 5809 5810 5811 5812 5813 5813 5815 5816 5817 5817 5817 5817 5821 5818 5819 5820 5821 5822 5824 5826 5829 5831 5834 5838 5841 5844 5848 5851 5854 5857 5860 5862 5865 5867 5869 5871 5873 5875 5876 5877 5879 5880 5880
5804 5806 5807 5808 5811 5811 5811 5812 5812 5814 5814 5815 5816 5819 5816 5817 5818 5819 5820 5822 5824 5827 5829 5832 5835 5839 5842 5845 5848 5852 5855 5857 5860 5862 5865 5867 5869 5871 5873 5875 5876 5877 5879 5879
5801 5802 5804 5806 5806 5807 5808 5809 5810 5811 5811 5813 5814 5814 5814 5814 5816 5817 5818 5820 5822 5824 5827 5830 5833 5836 5839 5842 5846 5849 5852 5855 5857 5860 5862 5864 5866 5869 5871 5873 5874 5876 5877 5878
5797 5799 5800 5802 5803 5804 5805 5806 5807 5808 5809 5810 5811 5812 5812 5812 5814 5815 5816 5818 5820 5822 5825 5828 5831 5834 5837 5840 5843 5846 5849 5852 5855 5857 5859 5862 5864 5866 5868 5870 5872 5874 5875 5876
5793 5795 5797 5799 5800 5801 5802 5803 5804 5805 5806 5807 5808 5810 5810 5810 5811 5812 5814 5815 5817 5820 5822 5825 5828 5831 5834 5837 5840 5843 5846 5849 5852 5854 5857 5859 5861 5863 5866 5868 5870 5871 5873 5874
5789 5791 5794 5795 5796 5798 5800 5801 5802 5803 5803 5804 5805 5808 5807 5808 5809 5810 5811 5813 5815 5817 5820 5823 5826 5829 5832 5835 5838 5841 5843 5846 5849 5851 5854 5856 5859 5861 5863 5865 5867 5869 5870 5871
5785 5787 5789 5791 5794 5795 5799 5798 5799 5800 5801 5801 5802 5803 5804 5806 5807 5808 5809 5811 5813 5815 5818 5820 5823 5826 5829 5832 5835 5838 5840 5843 5846 5848 5851 5853 5855 5858 5860 5862 5864 5866 5867 5868
5780 5783 5785 5788 5789 5791 5794 5795 5796 5797 5798 5799 5800 5801 5802 5803 5804 5805 5807 5809 5810 5813 5815 5818 5821 5823 5826 5829 5832 5834 5837 5840 5842 5845 5847 5850 5852 5854 5857 5859 5861 5862 5864 5865
5775 5778 5781 5783 5786 5788 5791 5792 5793 5795 5795 5796 5797 5798 5799 5800 5802 5804 5805 5806 5808 5810 5813 5816 5818 5820 5823 5826 5829 5831 5834 5837 5839 5841 5844 5846 5849 5851 5853 5855 5857 5859 5860 5861
5770 5773 5776 5779 5781 5784 5787 5788 5790 5793 5793 5793 5794 5795 5797 5798 5800 5801 5802 5804 5806 5808 5811 5813 5815 5818 5820 5823 5826 5828 5831 5833 5836 5838 5840 5843 5845 5847 5849 5851 5853 5855 5856 5858
5765 5768 5772 5774 5777 5782 5782 5784 5787 5788 5789 5790 5791 5793 5794 5796 5797 5798 5800 5802 5804 5806 5808 5810 5812 5815 5817 5820 5823 5825 5827 5830 5832 5834 5836 5839 5841 5843 5845 5847 5849 5851 5852 5853
5760 5764 5767 5771 5775 5777 5778 5780 5782 5784 5785 5787 5788 5790 5792 5793 5795 5796 5798 5799 5801 5803 5805 5807 5809 5812 5814 5817 5819 5822 5824 5826 5828 5830 5832 5834 5837 5839 5841 5843 5845 5846 5847 5848
5754 5758 5761 5765 5769 5771 5773 5775 5777 5780 5781 5783 5785 5787 5788 5790 5792 5794 5796 5797 5799 5801 5803 5805 5807 5809 5811 5813 5815 5817 5820 5822 5824 5826 5828 5830 5832 5835 5836 5838 5840 5841 5842 5844
5748 5752 5755 5759 5763 5766 5768 5771 5773 5776 5777 5779 5781 5783 5785 5787 5789 5791 5793 5795 5796 5798 5800 5802 5804 5806 5808 5810 5812 5814 5816 5818 5820 5822 5824 5826 5828 5830 5831 5833 5834 5836 5837 5838
5742 5746 5750 5754 5758 5760 5763 5766 5769 5771 5773 5776 5778 5780 5781 5783 5785 5787 5790 5791 5793 5795 5797 5799 5801 5803 5805 5807 5809 5810 5812 5814 5816 5818 5820 5822 5823 5825 5826 5828 5829 5830 5831 5832
Wind_Speed
13 13 13 13 14 14 14 15 16 17 17 16 17 18 18 18 18 18 18 17 16 16 16 15 14 12 12 11 10 9 7 6 4 3 2 1 1 1 2 4 5 5 6 6
13 13 13 13 14 14 14 15 16 16 16 16 16 17 18 18 17 17 17 17 16 16 16 16 15 14 13 13 11 9 8 6 5 4 3 2 1 1 2 3 4 5 6 7
14 13 12 13 14 14 14 15 15 15 15 16 16 16 17 17 17 17 18 17 17 16 16 16 15 15 14 14 12 10 9 8 6 5 4 3 2 1 1 2 3 5 6 7
13 13 12 13 13 13 13 13 14 14 15 16 15 15 15 16 17 17 17 17 17 17 16 16 15 15 14 14 12 10 9 8 7 6 5 4 3 1 0 1 2 4 5 6
13 13 13 13 13 12 12 11 12 13 14 14 14 14 14 16 17 16 16 17 17 17 17 17 16 15 15 14 13 10 10 9 8 7 6 5 4 2 1 1 2 3 4 5
14 13 12 12 12 12 11 11 11 12 13 13 13 14 14 16 16 15 16 16 17 17 17 17 17 15 15 15 13 12 10 10 8 7 7 6 5 4 2 1 1 2 3 5
13 13 12 12 12 11 11 11 10 11 12 11 12 14 14 15 15 15 15 16 16 17 17 17 17 16 16 15 15 13 11 10 9 8 8 7 6 5 3 2 1 1 2 4
14 14 13 12 11 12 11 11 10 10 10 10 11 13 13 14 14 14 15 16 17 17 17 17 17 16 16 16 15 14 12 11 10 9 9 9 8 6 4 3 2 0 1 2
15 14 13 12 12 11 11 11 10 11 11 11 11 12 12 12 12 13 14 16 17 17 17 17 17 17 17 16 15 14 14 12 11 10 10 10 9 7 5 4 2 1 0 1
15 14 13 12 12 12 11 10 10 11 11 11 10 11 12 11 12 12 13 14 15 16 16 18 18 17 17 17 16 14 14 13 12 11 10 11 10 8 7 5 4 3 1 0
16 15 14 13 12 11 12 12 11 11 11 10 10 10 11 11 11 11 12 13 14 15 16 17 18 18 17 17 16 15 14 13 12 11 10 11 11 10 8 7 5 4 3 2
16 15 15 14 13 13 13 12 12 13 12 11 10 9 10 11 11 11 12 13 14 14 15 17 18 18 18 17 16 16 15 14 13 12 11 12 12 11 10 8 7 6 5 4
16 15 15 15 13 12 12 12 12 13 13 11 11 10 10 10 11 11 12 13 14 14 15 17 17 18 17 17 17 17 16 16 14 13 12 12 13 13 11 10 9 8 7 6
17 16 15 15 14 12 12 13 13 13 13 12 11 10 10 10 11 11 12 12 13 14 15 16 17 17 16 17 18 17 16 17 16 14 13 13 14 13 12 11 10 9 9 8
18 16 15 15 14 13 13 13 14 14 13 13 12 12 12 12 11 12 12 13 14 14 15 16 16 16 16 17 17 17 16 16 16 15 14 14 14 14 13 12 11 11 10 10
18 17 16 16 14 14 13 13 13 13 14 14 14 13 13 13 12 12 13 13 14 14 15 15 16 15 15 16 16 16 16 16 16 15 15 15 15 15 14 13 13 12 11 11
19 18 17 16 15 14 13 12 12 13 14 14 14 12 13 13 12 12 12 13 13 14 14 14 15 15 15 16 15 14 15 16 16 16 15 15 15 16 15 14 14 13 13 12
21 20 19 17 16 15 13 13 13 13 13 13 13 13 14 13 12 12 12 13 14 14 15 15 15 15 16 16 16 16 15 15 16 17 16 15 14 15 15 16 15 14 14 13
22 21 20 19 18 16 15 14 13 13 13 13 13 13 13 12 12 12 12 12 13 14 15 15 16 15 15 16 17 17 16 16 17 17 16 15 15 15 15 15 16 15 15 14
23 22 22 20 19 17 15 14 13 13 14 13 12 12 12 12 12 11 12 12 13 14 15 15 16 16 16 15 15 16 16 16 16 17 17 17 16 15 15 15 15 15 14 15
25 24 22 21 20 18 17 15 14 14 13 13 12 12 11 11 12 12 12 13 13 14 14 15 16 16 16 16 15 15 16 16 16 17 17 18 17 15 15 16 16 16 16 16
25 24 23 23 22 18 18 17 16 15 14 13 13 13 12 12 13 12 12 12 13 13 14 14 15 16 16 16 16 15 16 17 17 18 18 18 18 17 17 16 16 17 17 17
27 25 24 24 22 19 18 17 17 16 16 15 15 14 13 13 13 13 12 12 13 13 14 14 14 15 15 16 16 16 16 17 17 17 17 17 18 18 18 18 18 18 18 18
28 27 25 25 23 22 21 20 19 18 17 17 16 15 15 14 14 14 13 13 13 13 13 13 14 14 15 15 16 16 15 15 16 16 17 17 17 18 18 18 18 18 19 19
29 28 27 25 23 22 22 21 20 19 18 18 17 16 15 15 15 14 14 14 13 13 14 14 13 14 14 15 15 15 15 16 16 17 17 17 18 18 18 19 19 20 20 21
30 29 28 26 24 24 23 22 21 20 19 18 18 17 17 16 16 16 15 14 14 14 15 14 14 15 15 16 16 16 16 17 17 17 17 18 18 18 19 19 19 20 21 22
Wind_Direction
261 260 262 265 265 266 267 267 266 266 265 264 263 260 259 258 255 251 247 245 241 240 238 235 232 226 222 217 214 209 207 205 209 218 214 227 103 61 48 40 37 35 29 24
259 260 263 263 263 264 264 265 266 263 264 264 262 261 259 257 254 251 246 242 240 235 234 232 231 226 223 218 212 208 207 206 207 206 208 189 153 97 56 45 40 36 32 28
261 263 264 263 262 262 263 263 261 260 264 263 261 259 258 259 254 251 247 243 241 239 233 228 227 223 221 217 212 207 208 208 209 204 206 196 184 150 68 47 38 33 32 30
266 268 266 263 261 260 261 260 259 261 261 262 261 261 257 260 258 251 246 243 240 235 230 225 225 220 217 212 207 207 210 208 208 206 208 202 200 198 131 62 39 32 34 37
263 267 266 263 261 260 262 258 260 261 263 263 261 261 260 259 259 254 247 241 237 234 231 227 223 217 213 210 209 211 212 211 209 208 208 202 206 204 178 109 46 37 39 40
260 263 263 263 258 259 262 261 259 259 262 263 260 263 262 261 262 255 246 235 232 231 230 224 217 213 211 210 211 211 209 207 207 208 210 205 205 205 196 174 87 52 45 45
258 260 264 265 261 258 261 260 259 258 258 262 260 261 265 262 262 255 241 230 229 228 224 222 216 212 211 212 212 210 209 207 208 209 207 205 204 206 201 190 159 64 51 49
254 255 259 264 262 264 259 256 255 255 258 262 257 262 269 265 262 253 239 230 228 224 225 219 216 216 215 215 214 213 211 211 211 210 210 207 205 206 204 205 201 152 58 50
252 256 257 260 261 263 258 252 252 253 252 255 261 269 273 269 260 252 242 233 229 229 227 221 219 218 218 216 214 213 211 211 213 213 213 209 207 207 207 209 210 211 144 50
248 253 255 257 258 258 256 253 245 248 251 253 258 262 267 269 263 252 243 239 229 227 225 222 219 218 218 218 216 215 213 214 217 216 215 210 211 212 212 213 214 218 217 199
244 248 252 255 258 259 255 251 249 250 254 250 252 251 258 264 260 250 243 238 234 231 226 222 218 217 219 219 216 214 213 216 218 217 218 214 212 213 215 217 220 223 219 210
239 243 247 251 254 257 253 249 251 250 249 251 253 256 263 263 256 248 245 238 231 230 225 221 219 219 219 217 215 213 213 217 220 219 222 219 216 217 219 222 223 226 226 231
238 240 242 246 251 254 252 251 251 246 245 246 249 254 262 261 252 246 240 235 231 229 224 219 216 217 218 217 216 216 218 219 222 224 227 225 220 220 222 224 225 227 230 234
238 240 241 243 247 251 249 251 250 249 248 247 251 251 258 255 250 246 243 238 232 228 221 215 215 218 218 218 218 220 222 221 223 225 226 224 220 219 221 226 227 230 234 238
235 237 242 245 245 250 253 249 246 245 246 246 246 251 257 255 250 248 244 238 233 227 220 217 218 221 220 220 219 221 222 221 223 225 225 223 220 219 221 225 228 233 239 243
233 235 240 244 246 247 251 246 246 245 246 246 245 251 252 253 250 245 240 234 229 225 223 220 219 221 222 220 219 220 221 222 223 225 225 225 225 221 221 225 230 236 242 246
233 234 238 243 244 247 247 247 248 247 246 248 246 247 250 250 246 240 235 232 226 221 220 219 219 220 220 218 219 220 221 224 225 225 226 227 228 224 225 230 235 239 245 248
232 234 236 239 242 244 246 247 250 250 247 246 244 244 247 247 242 237 231 230 225 221 220 220 219 220 219 219 221 222 223 225 223 223 226 229 230 229 230 234 239 243 246 249
232 234 236 236 241 243 245 248 251 252 248 244 243 243 243 243 240 236 232 230 225 218 217 218 219 220 220 221 222 223 227 228 226 226 228 230 232 232 234 236 238 243 247 250
231 233 234 235 239 244 244 249 251 252 246 242 241 242 241 239 238 234 232 230 224 219 217 218 219 219 221 223 223 225 228 230 230 227 227 229 231 234 237 239 241 244 249 252
231 232 233 234 238 240 244 245 248 246 244 243 242 240 238 238 239 234 229 225 222 219 218 219 222 222 222 223 225 229 230 231 232 233 232 231 232 234 239 241 243 246 250 253
232 233 233 233 235 236 242 244 245 247 244 241 239 237 238 239 239 232 227 225 223 221 222 223 225 226 226 227 229 233 235 235 235 236 235 234 234 237 240 243 246 249 252 255
231 233 232 232 233 238 242 244 243 243 242 238 237 237 239 240 238 231 228 229 228 224 225 225 226 227 227 228 231 236 236 236 235 237 236 236 237 240 243 245 248 251 254 257
228 230 231 229 230 235 239 242 241 240 240 237 237 238 238 234 231 227 227 230 228 226 226 226 226 228 229 230 232 234 234 236 235 235 237 237 240 244 246 247 250 253 255 259
226 227 228 228 228 232 236 238 239 238 239 237 236 236 234 230 228 227 226 226 228 228 227 227 228 230 232 234 236 235 236 238 239 240 241 242 244 246 250 252 255 257 259 262
226 226 226 227 228 230 232 233 234 236 235 234 234 234 231 228 228 229 228 230 230 230 229 230 231 232 234 236 239 241 241 241 242 245 246 248 251 252 253 254 257 259 261 263